Flag for Germany Weather past 2 weeks in Minden, North Rhine-Westphalia, Germany

Now
57 °F

Cool.


Feels Like: 54 °F
Forecast: 44 / 68 °F
Wind: 16 mph from West

Location: Bueckeburg

Current Time: May 30, 2015 at 1:33:13 PM

Latest Report: May 30, 2015 at 12:20 PM


Visibility: N/A

Pressure: 29.86 "Hg

Humidity: 67%

Dew point: 46 °F

Location of MindenLocation

Historic Weather in Minden — Graph

°F

Minden temperature yesterday

Maximum temperature yesterday: 63 °F (at 3:20 PM)
Minimum temperature yesterday: 41 °F (at 3:20 AM)
Average temperature yesterday: 54 °F

Past Weeks' High & Low Weather Summary

 TemperatureHumidityPressure
High68 °F (May 18, 6:20 PM)100% (May 24, 6:20 AM)30.33 "Hg (May 24, 6:20 AM)
Low37 °F (May 16, 5:20 AM)39% (May 21, 5:20 PM)29.59 "Hg (May 18, 8:20 PM)
Average53 °F68%30.02 "Hg
* Reported May 15 12:20 PM — May 30 12:20 PM, Minden, Weather by CustomWeather, © 2015

Note: Actual official high and low records may vary slightly from our data, if they occured in-between our weather recording intervals... More about our weather records

Advertising

Minden weather history for previous 24 hours

 ConditionsComfort  
Time TempWeatherWind HumidityBarometerVisibility
12:20 PM
Sat, May 30
57 °FCool.16 mph67%29.86 "HgN/A
11:20 AM57 °FRefreshingly cool.21 mph51%29.83 "Hg5 mi
10:20 AM54 °FCool.13 mph67%29.83 "Hg6 mi
9:20 AM52 °FCool.10 mph72%29.83 "HgN/A
8:20 AM50 °FCool.13 mph76%29.83 "Hg4 mi
7:20 AM48 °FCool.12 mph82%29.80 "Hg4 mi
6:20 AM46 °FCool.10 mph87%29.80 "HgN/A
5:20 AM48 °FPassing clouds.9 mph87%29.77 "HgN/A
4:20 AM48 °FPassing clouds.12 mph87%29.74 "HgN/A
3:20 AM48 °FPassing clouds.10 mph87%29.74 "HgN/A
2:20 AM48 °FPassing clouds.14 mph87%29.74 "HgN/A
1:20 AM48 °FLight rain. Partly cloudy.10 mph87%29.74 "HgN/A
12:20 AM50 °FLight rain. Passing clouds.9 mph88%29.74 "HgN/A
11:20 PM
Fri, May 29
57 °FLight rain. Passing clouds.15 mph59%29.71 "HgN/A
10:20 PM59 °FPartly sunny.10 mph48%29.71 "HgN/A
9:20 PM59 °FPartly sunny.12 mph48%29.71 "HgN/A
8:20 PM61 °FBroken clouds.10 mph52%29.71 "HgN/A
7:20 PM61 °FBroken clouds.10 mph52%29.68 "HgN/A
6:20 PM63 °FBroken clouds.13 mph45%29.71 "HgN/A
5:20 PM63 °FBroken clouds.16 mph45%29.71 "HgN/A
4:20 PM63 °FBroken clouds.15 mph49%29.74 "HgN/A
3:20 PM63 °FPartly sunny.13 mph49%29.77 "HgN/A
2:20 PM61 °FBroken clouds.13 mph55%29.77 "HgN/A
1:20 PM61 °FBroken clouds.9 mph55%29.80 "HgN/A
Weather by CustomWeather, © 2015

See weather overviewHow to use our weather pages